Regional Weather Roundup
Issued by NWS State College, PA

Home | Current Version | Previous Version | Graphics & Text | Print | Product List | Glossary On
Versions: 1 2 3 4 5 6 7 8 9 10 11 12 13 14 15 16 17 18 19 20 21 22 23 24 25 26 27 28 29 30 31 32 33 34 35 36 37 38 39 40 41 42 43 44 45 46 47 48 49 50
000
ASUS41 KCTP 052303
RWRCTP

REGIONAL WEATHER ROUNDUP
NATIONAL WEATHER SERVICE STATE COLLEGE PA
600 PM EST THU MAR 05 2015

Note: "fair" indicates few or no clouds below 12,000 feet with no
significant weather and/or obstructions to visibility.

* = STATION THAT DOES NOT REPORT PRECIPITATION /E.G. RAIN...SNOW...ETC/
    THUNDER OR FOG.

PAZ002>004-007>009-013>016-020>023-029>032-060000-
WESTERN PENNSYLVANIA

CITY           SKY/WX    TMP DP  RH WIND       PRES   REMARKS
ERIE           PTCLDY    11   0  61 VRB6      30.41R WCI   1
MEADVILLE      CLOUDY     8  -3  61 W8        30.34R WCI  -4
FRANKLIN*      PTCLDY     9  -4  56 NW9       30.32R WCI  -5
NEW CASTLE     FAIR      12  -2  53 NW9       30.39R WCI   0
BEAVER COUNTY  NOT AVBL
BUTLER*        PTCLDY    12  -2  52 N5        30.35R WCI   4
PITTSBURGH INT MOCLDY    15   0  51 N8        30.34R WCI   4
PITTSBURGH     MOCLDY    14  -1  51 NW9       30.33R WCI   2
INDIANA*       CLOUDY    14   3  62 NW7       30.33R WCI   4
LATROBE        MOCLDY    16   5  62 NW9       30.35R WCI   4
WASHINGTON CO* PTCLDY    16   1  53 NW3       30.36R
$$

PAZ004>006-010>012-017>019-024>028-033>037-041-042-045-046-049>053-060000-
CENTRAL PENNSYLVANIA

CITY           SKY/WX    TMP DP  RH WIND       PRES   REMARKS
BRADFORD       CLEAR      9  -5  53 NW13      30.19R WCI  -7
DUBOIS         MOCLDY    12  -3  51 W10       30.23R WCI  -1
CLEARFIELD     MOCLDY    15  -1  49 W10       30.26R WCI   2
JOHNSTOWN      CLOUDY    11   2  67 NW13      30.19R WCI  -4
ALTOONA        CLOUDY    16   2  54 NW9       30.25R WCI   4
STATE COLLEGE  CLOUDY    18  -2  41 W8        30.25R WCI   7
WILLIAMSPORT   CLOUDY    20  -1  40 N9        30.28R WCI   9
SELINSGROVE    CLOUDY    21   4  47 N5        30.29R WCI  15
FT INDIANTOWN  PTCLDY    21   2  45 N2        30.27R
CAPITAL CITY   CLOUDY    21  10  62 CALM      30.29R
HARRISBURG     FLURRIES  21  13  71 CALM      30.29R
YORK           CLOUDY    20  15  81 CALM      30.27R
$$

PAZ038>040-043-044-047-048-054-055-060>062-067>071-060000-
EASTERN PENNSYLVANIA

CITY           SKY/WX    TMP DP  RH WIND       PRES   REMARKS
SCRANTON       CLOUDY    17   1  49 N10       30.23R WCI   5
MOUNT POCONO   CLOUDY    13   1  59 NW14G20   30.12R WCI  -2
ALLENTOWN      CLOUDY    20   6  55 NW12      30.27R WCI   8
QUAKERTOWN*    CLOUDY    18  12  79 NW6       30.25R WCI   9
READING        CLOUDY    20  13  74 W6        30.27R WCI  12
LANCASTER      CLOUDY    19  13  77 N6        30.27R WCI  11
COATESVILLE    FLURRIES  19  16  86 N8        30.25S WCI   9
POTTSTOWN      MIX PCPN  18  13  80 NW5       30.27F WCI  11
BLUE BELL      CLOUDY    21  18  86 NW3       30.26R
DOYLESTOWN     CLOUDY    18  15  88 NW8       30.24R WCI   8
WILLOW GROVE   NOT AVBL
NORTH PHILA    LGT SNOW  21  16  81 NW10      30.27R WCI  10
PHILADELPHIA   LGT SNOW  20  15  81 NW15G23   30.28R WCI   6
$$


USA.gov is the U.S. government's official web portal to all federal, state and local government web resources and services.